Regional Weather Roundup
Issued by NWS Nashville, TN

Home | Current Version | Previous Version | Text Only | Print | Product List | Glossary On
Versions: 1 2 3 4 5 6 7 8 9 10 11 12 13 14 15 16 17 18 19 20 21 22 23 24 25 26 27 28 29 30 31 32 33 34 35 36 37 38 39 40 41 42 43 44 45 46 47 48 49 50
000
ASUS44 KOHX 011215
RWROHX
MIDDLE TENNESSEE HOURLY WEATHER ROUNDUP
NATIONAL WEATHER SERVICE NASHVILLE TN
600 AM CST SUN FEB 01 2015

NOTE: "FAIR" INDICATES FEW OR NO CLOUDS BELOW 12,000 FEET WITH
NO SIGNIFICANT WEATHER AND/OR OBSTRUCTIONS TO VISIBILITY.

* THESE REPORTS ARE NOT UNDER NWS QUALITY CONTROL AND MAY NOT
  REPORT WEATHER SUCH AS PRECIPITATION AND FOG.


TNZ005>011-023>034-057-059-062>066-078-080-011300
...NORTHERN MIDDLE TENNESSEE...

CITY           SKY/WX    TMP DP  RH WIND       PRES   REMARKS
CLARKSVILLE    CLOUDY    47  23  38 S12       29.97F
CROSSVILLE     CLOUDY    43  18  36 S13G22    30.08F
GALLATIN         N/A     41  25  53 CALM      30.06R
DICKSON        CLOUDY    46  23  39 S10       29.98F
LEBANON        CLOUDY    46  21  37 S8        30.04S
LIVINGSTON     CLOUDY    47  21  35 S6        30.06F
NASHVILLE      CLOUDY    48  22  35 S14       30.03F
WEST NASHVILLE CLOUDY    48  19  32 S9        30.02F
PORTLAND       CLOUDY    43  19  39 S13       30.01F
SMYRNA         CLOUDY    46  23  40 SE8       30.05F
SPARTA         PTCLDY    46  21  36 S12       30.07R
$$
TNZ056-058-060-061-075>077-079-093>097-011300
...SOUTHERN MIDDLE TENNESSEE...

CITY           SKY/WX    TMP DP  RH WIND       PRES   REMARKS
COLUMBIA       CLOUDY    46  28  49 S10       30.01S
LEWISBURG      CLOUDY    48  23  37 S8        30.04F
MCMINNVILLE    MOCLDY    48  23  37 S6        30.07R
MURFREESBORO   CLOUDY    49  22  34 S8        30.05F
SHELBYVILLE    MOCLDY    48  25  40 SE7       30.07S
TULLAHOMA      PTCLDY    46  21  36 S10       30.08S
WINCHESTER     MOCLDY    46  25  42 S8        30.10R
$$


...KEY TO REMARKS...
VSB - VISIBILITY IN MILES
WCI - WIND CHILL INDEX
HX  - HEAT INDEX



USA.gov is the U.S. government's official web portal to all federal, state and local government web resources and services.